Home   Weather   London   Past weeks

Flag for Canada Past Weather in London, Ontario, Canada — Yesterday and Last 2 Weeks

36 °F


Feels Like: 36 °F
Forecast: 31 / 50 °F
Wind: No wind

Location: London Weather Station

Current Time: Oct 28, 2016 at 10:21:03 AM

Latest Report: Oct 28, 2016 at 10:00 AM

Visibility: 15 mi

Pressure: 30.33 "Hg

Humidity: 93%

Dew Point: 34 °F

Location of LondonLocation

Past Weather in London — Graph


London Temperature Yesterday

Maximum temperature yesterday: 41 °F (at 1:51 PM)
Minimum temperature yesterday: 32 °F (at 11:00 PM)
Average temperature yesterday: 37 °F

High & Low Weather Summary for the Past Weeks

High75 °F (Oct 17, 3:00 PM)100% (Oct 15, 4:00 AM)30.52 "Hg (Oct 15, 4:00 AM)
Low25 °F (Oct 26, 4:00 AM)49% (Oct 19, 5:00 PM)29.61 "Hg (Oct 18, 11:00 AM)
Average50 °F84%30.08 "Hg
* Reported Oct 13 9:00 AM — Oct 28 9:00 AM, London, Weather by CustomWeather, © 2016

Note: Actual official high and low records may vary slightly from our data, if they occured in-between our weather recording intervals... More about our weather records


London Weather History for the Previous 24 Hours

Scroll right to see more
Time TempWeatherWind HumidityBarometerVisibility
9:00 AM
Fri, Oct 28
30 °FPartly sunny.No wind100%30.32 "Hg15 mi
8:00 AM28 °FLight fog.3 mph93%30.31 "Hg15 mi
7:00 AM28 °FPassing clouds.No wind93%30.30 "Hg15 mi
6:00 AM30 °FPassing clouds.No wind100%30.29 "Hg15 mi
5:00 AM32 °FPassing clouds.2 mph93%30.27 "Hg15 mi
4:00 AM30 °FPassing clouds.5 mph100%30.26 "Hg15 mi
3:00 AM30 °FPassing clouds.6 mph100%30.25 "Hg15 mi
2:00 AM32 °FPassing clouds.3 mph93%30.24 "Hg15 mi
1:00 AM30 °FPassing clouds.3 mph93%30.23 "Hg15 mi
12:00 AM32 °FPassing clouds.5 mph93%30.23 "Hg15 mi
11:00 PM
Thu, Oct 27
32 °FPassing clouds.6 mph93%30.22 "Hg15 mi
10:00 PM34 °FPassing clouds.6 mph87%30.20 "Hg15 mi
9:00 PM36 °FPassing clouds.7 mph87%30.18 "Hg15 mi
8:00 PM36 °FPartly cloudy.8 mph87%30.17 "Hg15 mi
7:00 PM37 °FMostly cloudy.8 mph87%30.14 "Hg15 mi
6:00 PM37 °FOvercast.12 mph87%30.11 "Hg15 mi
5:00 PM37 °FLow clouds.9 mph87%30.07 "Hg15 mi
4:00 PM37 °FLow clouds.8 mph93%30.05 "Hg15 mi
3:00 PM39 °FLow clouds.10 mph93%30.01 "Hg15 mi
2:00 PM41 °FMostly cloudy.8 mph93%30.00 "Hg10 mi
1:51 PM41 °FMostly cloudy.9 mph93%29.99 "Hg10 mi
1:00 PM39 °FLight rain. Fog.7 mph100%29.99 "Hg2 mi
12:00 PM39 °FLight rain. Fog.10 mph93%29.98 "Hg1 mi
11:00 AM37 °FLight rain. Fog.10 mph100%29.98 "Hg1 mi
10:48 AM37 °FLight rain. Fog.10 mph100%29.98 "Hg2 mi
10:00 AM37 °FSprinkles. Fog.13 mph93%29.98 "Hg6 mi
Weather by CustomWeather, © 2016

See weather overviewHow to use our weather pages